Total_Precipitation_Accumulation
0.49 0.46 0.42 0.40 0.38 0.35 0.37 0.40 0.41 0.40 0.40 0.43 0.44 0.42 0.45 0.41 0.34 0.33 0.29 0.26 0.27 0.38 0.60 0.83 1.05 1.29 1.47 1.52 1.52 1.40 1.32 1.18 1.06 0.98 0.95 0.97 1.07 1.16 1.23 1.20 1.25 1.30 1.28
0.54 0.52 0.49 0.48 0.45 0.40 0.38 0.42 0.45 0.45 0.44 0.43 0.40 0.37 0.38 0.37 0.33 0.33 0.33 0.33 0.31 0.34 0.49 0.69 0.87 1.08 1.36 1.63 1.75 1.67 1.50 1.40 1.33 1.25 1.12 1.08 1.10 1.17 1.27 1.34 1.21 1.17 1.15
0.61 0.56 0.52 0.50 0.50 0.52 0.50 0.47 0.47 0.51 0.47 0.44 0.43 0.40 0.37 0.35 0.34 0.36 0.38 0.37 0.38 0.36 0.43 0.58 0.73 0.89 1.12 1.48 1.84 1.97 1.73 1.60 1.57 1.53 1.35 1.22 1.15 1.21 1.25 1.37 1.41 1.33 1.24
0.62 0.65 0.59 0.55 0.55 0.59 0.61 0.58 0.51 0.52 0.51 0.48 0.45 0.43 0.39 0.38 0.35 0.35 0.40 0.40 0.41 0.39 0.39 0.47 0.59 0.72 0.94 1.18 1.50 1.90 1.99 1.86 1.78 1.75 1.64 1.51 1.34 1.32 1.35 1.42 1.52 1.54 1.49
0.62 0.64 0.64 0.61 0.65 0.67 0.63 0.64 0.59 0.62 0.60 0.56 0.55 0.53 0.52 0.49 0.47 0.43 0.45 0.46 0.44 0.42 0.41 0.44 0.51 0.54 0.71 0.97 1.25 1.59 1.88 1.96 1.91 1.89 1.82 1.74 1.60 1.45 1.44 1.51 1.57 1.67 1.71
0.67 0.72 0.69 0.69 0.72 0.74 0.71 0.68 0.65 0.62 0.63 0.66 0.71 0.68 0.67 0.63 0.56 0.48 0.47 0.51 0.49 0.45 0.48 0.48 0.48 0.46 0.51 0.70 0.98 1.30 1.66 1.90 2.00 2.01 2.00 1.98 1.88 1.73 1.56 1.53 1.56 1.69 1.86
0.69 0.76 0.76 0.73 0.74 0.71 0.68 0.65 0.67 0.65 0.60 0.62 0.71 0.70 0.64 0.61 0.55 0.49 0.51 0.59 0.64 0.64 0.62 0.63 0.62 0.55 0.53 0.60 0.68 0.89 1.21 1.60 1.93 2.05 2.09 2.10 2.09 2.03 1.90 1.75 1.70 1.76 1.94
0.73 0.76 0.82 0.79 0.73 0.71 0.68 0.62 0.63 0.65 0.60 0.59 0.68 0.74 0.67 0.60 0.51 0.41 0.43 0.52 0.61 0.69 0.73 0.72 0.73 0.72 0.64 0.59 0.51 0.54 0.70 1.07 1.56 2.01 2.20 2.28 2.39 2.39 2.28 2.09 1.95 1.96 2.05
0.71 0.70 0.79 0.87 0.82 0.74 0.68 0.65 0.64 0.63 0.62 0.58 0.60 0.81 0.83 0.64 0.46 0.33 0.31 0.36 0.41 0.47 0.53 0.57 0.64 0.69 0.70 0.68 0.59 0.48 0.47 0.68 1.06 1.59 2.14 2.48 2.71 2.92 2.86 2.57 2.35 2.23 2.20
0.73 0.70 0.78 0.87 0.91 0.80 0.68 0.65 0.66 0.65 0.65 0.65 0.60 0.59 0.65 0.64 0.68 0.51 0.31 0.27 0.27 0.29 0.33 0.38 0.42 0.48 0.58 0.63 0.66 0.67 0.62 0.62 0.88 1.20 1.70 2.29 2.83 3.30 3.58 3.31 2.87 2.54 2.39
0.79 0.75 0.76 0.81 0.87 0.82 0.74 0.68 0.66 0.68 0.67 0.68 0.68 0.64 0.58 0.52 0.54 0.64 0.47 0.30 0.28 0.25 0.25 0.29 0.32 0.37 0.43 0.51 0.58 0.66 0.74 0.75 0.91 1.12 1.35 1.79 2.41 3.17 3.74 3.79 3.44 3.03 2.72
0.92 0.85 0.84 0.79 0.79 0.76 0.73 0.71 0.69 0.69 0.67 0.66 0.68 0.68 0.67 0.66 0.57 0.60 0.56 0.36 0.32 0.29 0.28 0.28 0.31 0.36 0.43 0.51 0.58 0.73 0.80 0.85 0.95 1.10 1.15 1.37 1.79 2.47 3.30 3.77 3.74 3.48 3.18
0.94 0.86 0.85 0.80 0.78 0.76 0.71 0.69 0.71 0.71 0.71 0.73 0.70 0.68 0.66 0.60 0.57 0.65 0.70 0.52 0.38 0.29 0.29 0.30 0.30 0.34 0.41 0.50 0.56 0.67 0.70 0.75 0.83 0.96 1.00 1.01 1.16 1.65 2.48 3.36 3.86 3.85 3.68
0.96 0.88 0.88 0.86 0.82 0.79 0.79 0.75 0.72 0.71 0.72 0.73 0.70 0.69 0.70 0.63 0.61 0.66 0.76 0.82 0.72 0.45 0.33 0.28 0.26 0.29 0.36 0.42 0.49 0.60 0.58 0.64 0.68 0.79 0.91 0.95 0.95 1.10 1.58 2.43 3.35 3.96 4.01
1.02 1.01 0.98 0.95 0.91 0.89 0.92 0.92 0.84 0.77 0.76 0.75 0.72 0.72 0.75 0.70 0.66 0.64 0.68 0.84 1.08 0.93 0.50 0.29 0.27 0.28 0.34 0.39 0.48 0.52 0.50 0.59 0.65 0.70 0.80 0.90 0.97 1.03 1.20 1.55 2.28 3.18 3.90
1.05 1.07 1.07 1.00 0.96 0.94 0.98 1.05 1.01 0.88 0.85 0.81 0.79 0.79 0.79 0.76 0.73 0.71 0.71 0.74 0.89 1.05 0.78 0.33 0.27 0.28 0.35 0.40 0.49 0.52 0.50 0.58 0.63 0.69 0.73 0.78 0.89 1.01 1.14 1.29 1.62 2.33 3.13
0.99 1.02 1.03 1.01 0.98 0.98 1.00 1.01 1.02 1.02 1.00 0.95 0.92 0.92 0.86 0.81 0.84 0.81 0.79 0.79 0.80 0.93 0.95 0.44 0.28 0.31 0.42 0.50 0.50 0.50 0.50 0.52 0.54 0.65 0.70 0.73 0.79 0.88 1.02 1.16 1.34 1.72 2.41
0.91 0.98 1.03 1.03 0.98 0.98 1.03 1.09 1.06 1.04 1.07 1.06 1.03 1.01 0.96 0.93 0.92 0.89 0.93 0.91 0.84 0.82 0.93 0.71 0.39 0.36 0.42 0.50 0.54 0.55 0.54 0.52 0.51 0.59 0.66 0.73 0.79 0.86 0.93 1.04 1.20 1.37 1.76
1.02 1.03 1.08 1.09 1.02 1.01 1.06 1.11 1.14 1.12 1.08 1.07 1.08 1.11 1.07 1.07 1.04 0.99 0.99 1.01 0.96 0.88 0.90 0.90 0.61 0.44 0.46 0.52 0.62 0.64 0.62 0.63 0.60 0.64 0.67 0.73 0.82 0.88 0.92 1.00 1.12 1.27 1.39
1.16 1.20 1.20 1.19 1.16 1.15 1.33 1.38 1.29 1.25 1.18 1.12 1.10 1.14 1.17 1.19 1.18 1.18 1.24 1.21 1.20 1.19 1.12 1.08 0.88 0.67 0.62 0.63 0.74 0.76 0.71 0.69 0.72 0.70 0.73 0.73 0.78 0.85 0.88 0.90 0.93 1.02 1.20
1.29 1.28 1.31 1.29 1.29 1.37 1.65 1.76 1.52 1.39 1.33 1.26 1.18 1.16 1.18 1.28 1.42 1.57 1.69 1.61 1.51 1.54 1.47 1.40 1.22 0.99 0.84 0.84 0.93 0.87 0.87 0.78 0.81 0.82 0.80 0.75 0.72 0.71 0.76 0.86 0.96 1.03 1.11
1.32 1.34 1.30 1.27 1.24 1.37 1.76 1.84 1.54 1.32 1.18 1.16 1.14 1.08 1.08 1.15 1.23 1.38 1.57 1.59 1.57 1.71 1.78 1.70 1.51 1.29 1.00 0.90 1.00 1.14 1.22 1.23 1.11 0.90 0.91 0.90 0.85 0.85 0.82 0.84 0.98 1.05 1.15
1.13 1.14 1.15 1.14 1.10 1.14 1.57 1.71 1.45 1.11 0.96 0.96 0.94 0.93 0.92 0.96 1.07 1.01 1.16 1.25 1.30 1.40 1.57 1.71 1.76 1.45 1.20 1.10 1.31 1.50 1.49 1.45 1.18 0.99 1.13 1.24 1.10 1.04 0.96 0.98 1.08 1.05 1.13
1.05 1.01 0.93 0.91 0.91 1.00 1.39 1.63 1.46 1.00 0.88 0.88 0.89 0.88 0.86 0.85 0.93 1.09 1.17 1.14 1.05 1.05 1.24 1.44 1.61 1.50 1.38 1.43 1.70 1.95 2.00 1.99 1.65 1.32 1.28 1.50 1.33 1.26 1.19 1.13 1.14 1.07 1.10
0.87 0.90 0.87 0.80 0.78 0.82 1.15 1.53 1.47 1.07 1.01 0.96 0.93 0.95 0.96 0.86 0.99 1.21 1.27 1.22 1.04 0.95 1.04 1.28 1.49 1.60 1.68 1.84 2.09 2.41 2.51 2.57 2.36 1.87 1.58 1.61 1.51 1.43 1.41 1.35 1.30 1.24 1.16
0.73 0.74 0.78 0.78 0.75 0.73 0.92 1.32 1.48 1.13 1.04 0.98 0.95 1.00 1.16 1.13 1.15 1.23 1.26 1.32 1.28 1.02 0.90 0.97 1.06 1.17 1.27 1.45 1.81 2.06 2.25 2.48 2.43 2.26 1.82 1.74 1.74 1.72 1.86 1.54 1.32 1.23 1.17